This is the latest recevied weather packets stored in our database for station/object WA4IKQ. If no packets are shown the sender has not sent any weather packets the latest 10 day(s).
| Time | Temp. | Humidity | Pressure | Rain* | Wind** | Luminosity | Snow |
|---|---|---|---|---|---|---|---|
| 1777706020 | 23.89° C | 84% | 1010.1 hPa | 0 mm | 0.45 m/s, 177° | - | - |
| 1777705717 | 23.89° C | 84% | 1010.1 hPa | 0 mm | 0 m/s | - | - |
| 1777705418 | 23.89° C | 84% | 1010.1 hPa | 0 mm | 0.89 m/s, 245° | - | - |
| 1777704619 | 23.89° C | 83% | 1010.3 hPa | 0 mm | 1.34 m/s, 211° | - | - |
| 1777704226 | 23.89° C | 83% | 1010.3 hPa | 0 mm | 1.34 m/s, 211° | - | - |
| 1777704209 | 23.89° C | 82% | 1010.5 hPa | 0 mm | 1.34 m/s, 222° | - | - |
| 1777703317 | 23.89° C | 82% | 1010.5 hPa | 0 mm | 1.34 m/s, 222° | - | - |
| 1777702130 | 24.44° C | 80% | 1010.6 hPa | 0 mm | 1.79 m/s, 235° | - | - |
| 1777702004 | 24.44° C | 80% | 1010.7 hPa | 0 mm | 1.34 m/s, 225° | - | - |
| 1777700920 | 24.44° C | 79% | 1010.7 hPa | 0 mm | 2.24 m/s, 217° | - | - |
| 1777699905 | 24.44° C | 78% | 1010.9 hPa | 0 mm | 0.45 m/s, 208° | - | - |
| 1777699717 | 24.44° C | 78% | 1010.9 hPa | 0 mm | 0.45 m/s, 208° | - | - |
| 1777699341 | 24.44° C | 77% | 1010.9 hPa | 0 mm | 1.79 m/s, 211° | - | - |
| 1777699115 | 24.44° C | 77% | 1010.9 hPa | 0 mm | 1.79 m/s, 211° | - | - |
| 1777698815 | 24.44° C | 77% | 1010.9 hPa | 0 mm | 0.89 m/s, 255° | - | - |
| 1777697313 | 25° C | 75% | 1010.9 hPa | 0 mm | 0.45 m/s, 226° | - | - |
| 1777697115 | 25° C | 74% | 1010.8 hPa | 0 mm | 0.89 m/s, 224° | - | - |
| 1777697013 | 25° C | 74% | 1010.8 hPa | 0 mm | 0.89 m/s, 224° | - | - |
| 1777696714 | 25° C | 74% | 1010.7 hPa | 0 mm | 0 m/s | - | - |
| 1777696691 | 25° C | 74% | 1010.7 hPa | 0 mm | 0.45 m/s, 250° | - | - |
| 1777696414 | 25° C | 74% | 1010.7 hPa | 0 mm | 0.45 m/s, 250° | - | - |
| 1777696304 | 25° C | 74% | 1010.7 hPa | 0 mm | 0 m/s | - | - |
| 1777696114 | 25° C | 74% | 1010.7 hPa | 0 mm | 0 m/s | - | - |
| 1777695672 | 24.44° C | 75% | 1010.9 hPa | 0 mm | 1.34 m/s, 229° | - | - |
| 1777695525 | 24.44° C | 75% | 1010.9 hPa | 0 mm | 1.34 m/s, 229° | - | - |
* Rain latest hour (hover to see other rain measurements)
** Current wind speed in m/s (hover to see current wind gust speed)